{"data":{"norad_id":59538,"intl_designator":"2024-074E","name":"STARLINK-31725","alt_names":[],"object_type":"PAYLOAD","status":"ACTIVE","operator":null,"country":"US","launch_date":"2024-04-18","launch_site_code":"AFETR","launch_vehicle":null,"mission":null,"orbit_class":"UNKNOWN","rcs_meters":null,"size_class":null,"mass_kg":null,"dimensions":null,"purposes":["comms"],"wikipedia_slug":null,"has_3d_model":false,"image_url":null,"decayed_at":null,"tle_current":{"epoch":"2026-05-24T15:56:59.275680Z","epoch_age_seconds":110923,"freshness":"FRESH","line1":"1 59538U 24074E   26144.66457495  .11391256  92250-5  31607-2 0  9990","line2":"2 59538  42.9733 219.7081 0016152  29.5667 330.6130 16.26500060118257","mean_motion":16.2650006,"eccentricity":0.0016152,"inclination_deg":42.9733,"raan_deg":219.7081,"arg_perigee_deg":29.5667,"mean_anomaly_deg":330.613,"bstar":0.0031607,"rev_number":11825,"period_min":88.533657969862,"perigee_km":191.33419391221,"apogee_km":212.5905469184,"semimajor_km":6580.0993704153,"source":"CELESTRAK","updated_at":"2026-05-25T13:38:18.979156Z"}}}